Overview Statistics Trail Chart Weather Telemetry Raw packets
 

This is the latest recevied weather packets stored in our database for station/object 4S6DRJ-13. If no packets are shown the sender has not sent any weather packets the latest 10 day(s).

<< 273 274 275 276 277 278 279 >>
Time Temp. Humidity Pressure Rain* Wind** Luminosity Snow
1788067458 30° C 72% 1010.6 hPa 0 mm 2.24 m/s, 155° 534 W/m² -
1788067396 30° C 72% 1010.9 hPa 0 mm 1.79 m/s, 249° 602 W/m² -
1788067336 30.56° C 71% 1010.8 hPa 0 mm 1.79 m/s, 245° 607 W/m² -
1788067274 30.56° C 73% 1010.5 hPa 0 mm 1.79 m/s, 261° 587 W/m² -
1788067214 30.56° C 73% 1010.7 hPa 0 mm 0.89 m/s, 208° 543 W/m² -
1788067153 30.56° C 73% 1010.6 hPa 0 mm 3.13 m/s, 215° 556 W/m² -
1788067092 30.56° C 72% 1010.7 hPa 0 mm 1.79 m/s, 283° 376 W/m² -
1788067031 30.56° C 72% 1010.7 hPa 0 mm 1.34 m/s, 231° 379 W/m² -
1788066970 30.56° C 72% 1010.7 hPa 0 mm 0.45 m/s, 242° 577 W/m² -
1788066909 30.56° C 72% 1010.7 hPa 0 mm 3.13 m/s, 282° 588 W/m² -
1788066848 30.56° C 72% 1010.5 hPa 0 mm 2.24 m/s, 55° 643 W/m² -
1788066788 30.56° C 72% 1010.9 hPa 0 mm 1.34 m/s, 282° 603 W/m² -
1788066726 30.56° C 72% 1010.8 hPa 0 mm 0.45 m/s, 250° 637 W/m² -
1788066665 30.56° C 71% 1011 hPa 0 mm 1.34 m/s, 261° 726 W/m² -
1788066604 30.56° C 73% 1010.7 hPa 0 mm 1.34 m/s, 124° 748 W/m² -
1788066543 30.56° C 72% 1010.8 hPa 0 mm 0.89 m/s, 96° 590 W/m² -
1788066482 30.56° C 72% 1010.9 hPa 0 mm 1.79 m/s, 167° 629 W/m² -
1788066421 30.56° C 72% 1010.6 hPa 0 mm 1.79 m/s, 323° 616 W/m² -
1788066360 30.56° C 72% 1010.9 hPa 0 mm 1.79 m/s, 293° 713 W/m² -
1788066299 30.56° C 71% 1010.9 hPa 0 mm 1.34 m/s, 252° 744 W/m² -
1788066238 31.11° C 71% 1011 hPa 0 mm 1.79 m/s, 166° 622 W/m² -
1788066177 31.11° C 71% 1010.9 hPa 0 mm 2.68 m/s, 297° 432 W/m² -
1788066116 31.11° C 71% 1010.7 hPa 0 mm 4.92 m/s, 155° 807 W/m² -
1788066055 31.11° C 72% 1010.7 hPa 0 mm 1.34 m/s, 235° 396 W/m² -
1788065994 30.56° C 72% 1010.9 hPa 0 mm 1.79 m/s, 224° 446 W/m² -

* Rain latest hour (hover to see other rain measurements)
** Current wind speed in m/s (hover to see current wind gust speed)